{"data":{"norad_id":59956,"epoch":"2026-09-21T11:59:37.300128Z","epoch_age_seconds":91226,"freshness":"FRESH","line1":"1 59956U 24107M   26264.49973727  .00000203  00000+0  65305-5 0  9994","line2":"2 59956  53.1589   5.7323 0000751  86.2975 273.8129 15.69698527132834","mean_motion":15.69698527,"eccentricity":7.51e-5,"inclination_deg":53.1589,"raan_deg":5.7323,"arg_perigee_deg":86.2975,"mean_anomaly_deg":273.8129,"bstar":6.5305e-6,"rev_number":13283,"period_min":91.737360724427,"perigee_km":359.25356592082,"apogee_km":360.26559798743,"semimajor_km":6737.8965819541,"source":"CELESTRAK","updated_at":"2026-09-22T09:00:49.117371Z"}}